Retour au catalogue

STARLINK-31259

ActifCommunicationsVLEO
NORAD 59076·PAYLOAD·🇺🇸 United States

Lancé Feb 29, 2024 depuis Cape Canaveral Space Force Station

Loading…

Prochains Passages (prochaines 24 heures)

TLE

FraisSource: CelesTrak SupGP

Époque: Sep 15, 2026, 02:04 UTC

1 59076C 24041C   26258.08659722  .00043995  00000+0  15934-2 0  2581
2 59076  43.0031 320.7336 0001454 263.1486  20.6794 15.27558625    13

Suivez STARLINK-31259 en temps réel avec AllMySat

Download on the App Store